TimeEST,TemperatureF,Dew PointF,Humidity,Sea Level PressureIn,VisibilityMPH,Wind Direction,Wind SpeedMPH,Gust SpeedMPH,PrecipitationIn,Events,Conditions,WindDirDegrees,DateUTC
12:15 AM,14.7,8.6,77,29.89,2.5,WSW,13.8,19.6,N/A,Snow,Light Snow,250,2013-02-09 05:15:00
12:35 AM,14.7,8.6,77,29.87,2.5,WSW,16.1,23.0,N/A,Snow,Light Snow,250,2013-02-09 05:35:00
12:55 AM,14.5,8.6,77,29.87,2.0,WSW,11.5,-,N/A,Snow,Light Snow,240,2013-02-09 05:55:00
1:15 AM,14.5,8.4,77,29.87,2.5,WSW,15.0,18.4,N/A,Snow,Light Snow,250,2013-02-09 06:15:00
1:35 AM,14.5,8.2,76,29.88,2.0,WSW,12.7,21.9,N/A,Snow,Light Snow,250,2013-02-09 06:35:00
1:55 AM,14.5,8.4,77,29.88,2.0,WSW,15.0,20.7,N/A,Snow,Light Snow,250,2013-02-09 06:55:00
2:15 AM,14.5,8.2,76,29.89,2.5,WSW,12.7,17.3,N/A,Snow,Light Snow,250,2013-02-09 07:15:00
2:35 AM,14.5,7.7,74,29.89,2.5,WSW,11.5,20.7,N/A,Snow,Light Snow,250,2013-02-09 07:35:00
2:55 AM,12.9,6.8,77,29.88,2.0,WSW,11.5,-,N/A,Snow,Light Snow,250,2013-02-09 07:55:00
3:15 AM,12.2,5.9,76,29.88,1.5,WSW,12.7,20.7,N/A,Snow,Light Snow,250,2013-02-09 08:15:00
3:35 AM,11.3,5.0,76,29.88,1.5,WSW,12.7,-,N/A,Snow,Light Snow,250,2013-02-09 08:35:00
3:55 AM,10.4,3.6,74,29.90,1.5,WSW,12.7,20.7,N/A,Snow,Light Snow,250,2013-02-09 08:55:00
4:15 AM,10.0,3.6,75,29.91,1.8,WSW,10.4,16.1,N/A,Snow,Light Snow,250,2013-02-09 09:15:00
4:35 AM,9.5,2.8,74,29.91,1.8,WSW,9.2,-,N/A,Snow,Light Snow,250,2013-02-09 09:35:00
4:55 AM,8.6,2.1,75,29.90,2.0,WSW,9.2,16.1,N/A,Snow,Light Snow,250,2013-02-09 09:55:00
5:15 AM,8.4,1.2,73,29.91,2.5,WSW,10.4,19.6,N/A,Snow,Light Snow,250,2013-02-09 10:15:00
5:35 AM,8.1,0.5,71,29.91,2.0,SW,12.7,18.4,N/A,Snow,Light Snow,230,2013-02-09 10:35:00
5:55 AM,7.7,0.1,71,29.91,2.0,SW,15.0,23.0,N/A,Snow,Light Snow,230,2013-02-09 10:55:00
6:15 AM,7.5,-0.2,71,29.92,3.0,SW,13.8,24.2,N/A,Snow,Light Snow,230,2013-02-09 11:15:00
6:35 AM,7.3,-0.4,71,29.93,4.0,SW,13.8,18.4,N/A,Snow,Light Snow,230,2013-02-09 11:35:00
6:55 AM,7.3,-0.4,71,29.94,3.0,SW,13.8,17.3,N/A,Snow,Light Snow,230,2013-02-09 11:55:00
7:15 AM,7.3,-0.6,70,29.95,2.5,SW,15.0,25.3,N/A,Snow,Light Snow,230,2013-02-09 12:15:00
7:35 AM,7.3,-0.4,71,29.96,1.5,SW,11.5,20.7,N/A,Snow,Light Snow,230,2013-02-09 12:35:00
7:55 AM,7.7,-0.6,69,29.97,1.5,SW,12.7,21.9,N/A,Snow,Light Snow,230,2013-02-09 12:55:00
8:15 AM,7.5,-0.9,68,29.98,1.5,SW,13.8,21.9,N/A,Snow,Light Snow,230,2013-02-09 13:15:00
8:35 AM,7.5,-2.6,63,29.98,4.0,SW,15.0,26.5,N/A,Snow,Light Snow,230,2013-02-09 13:35:00
8:55 AM,7.5,-3.5,61,29.99,7.0,SW,15.0,25.3,N/A,,Mostly Cloudy,230,2013-02-09 13:55:00
9:15 AM,7.7,-4.0,59,29.99,7.0,SW,18.4,24.2,N/A,,Overcast,230,2013-02-09 14:15:00
9:35 AM,7.7,-4.5,57,30.00,4.0,SW,18.4,29.9,N/A,,Haze,230,2013-02-09 14:35:00
9:55 AM,8.2,-4.2,57,30.00,7.0,SW,18.4,23.0,N/A,,Mostly Cloudy,230,2013-02-09 14:55:00
10:15 AM,8.8,-4.0,56,30.00,10.0,SW,17.3,23.0,N/A,,Mostly Cloudy,230,2013-02-09 15:15:00
10:35 AM,9.3,-3.5,56,30.01,5.0,SW,17.3,26.5,N/A,,Haze,230,2013-02-09 15:35:00
10:55 AM,9.5,-2.7,58,30.01,5.0,SW,18.4,26.5,N/A,,Haze,230,2013-02-09 15:55:00
11:15 AM,10.0,-2.4,57,30.02,7.0,SW,18.4,25.3,N/A,,Overcast,230,2013-02-09 16:15:00
11:35 AM,10.6,-1.7,58,30.02,4.0,SW,16.1,29.9,N/A,,Haze,230,2013-02-09 16:35:00
11:55 AM,11.3,-1.3,57,30.02,4.0,SW,13.8,29.9,N/A,,Haze,230,2013-02-09 16:55:00
12:15 PM,12.2,-1.1,55,30.02,5.0,SW,17.3,25.3,N/A,,Haze,230,2013-02-09 17:15:00
12:35 PM,12.4,-0.4,57,30.02,4.0,SW,23.0,31.1,N/A,,Haze,230,2013-02-09 17:35:00
12:55 PM,13.1,0.3,57,30.01,2.5,SW,21.9,34.5,N/A,,Haze,230,2013-02-09 17:55:00
1:15 PM,12.9,0.5,58,30.02,4.0,SW,20.7,29.9,N/A,,Haze,230,2013-02-09 18:15:00
1:35 PM,13.5,0.1,55,30.02,7.0,SW,16.1,27.6,N/A,,Clear,230,2013-02-09 18:35:00
1:55 PM,13.8,0.1,55,30.03,10.0,SW,12.7,21.9,N/A,,Clear,230,2013-02-09 18:55:00
2:15 PM,13.6,1.0,57,30.04,10.0,SW,19.6,25.3,N/A,,Clear,230,2013-02-09 19:15:00
2:35 PM,13.1,1.2,59,30.05,10.0,SW,23.0,28.8,N/A,,Clear,230,2013-02-09 19:35:00
2:55 PM,13.1,0.7,58,30.06,10.0,SW,13.8,26.5,N/A,,Clear,230,2013-02-09 19:55:00
3:15 PM,13.1,0.3,57,30.07,7.0,SW,17.3,25.3,N/A,,Clear,230,2013-02-09 20:15:00
3:35 PM,13.5,0.1,55,30.08,7.0,SW,17.3,27.6,N/A,,Clear,230,2013-02-09 20:35:00
3:55 PM,14.0,-0.0,54,30.08,10.0,SW,17.3,24.2,N/A,,Clear,230,2013-02-09 20:55:00
4:15 PM,13.6,-0.0,55,30.09,7.0,SW,16.1,27.6,N/A,,Clear,230,2013-02-09 21:15:00
4:35 PM,13.5,-0.8,53,30.11,10.0,SW,17.3,26.5,N/A,,Clear,230,2013-02-09 21:35:00
4:55 PM,12.7,-1.7,53,30.11,10.0,SW,17.3,25.3,N/A,,Clear,230,2013-02-09 21:55:00
5:15 PM,12.2,-2.2,53,30.12,10.0,SW,11.5,20.7,N/A,,Clear,230,2013-02-09 22:15:00
5:35 PM,11.7,-2.9,52,30.13,10.0,SW,11.5,-,N/A,,Clear,230,2013-02-09 22:35:00
5:55 PM,10.9,-3.3,53,30.15,10.0,SW,10.4,18.4,N/A,,Clear,230,2013-02-09 22:55:00
6:15 PM,10.4,-4.0,52,30.15,10.0,SW,10.4,16.1,N/A,,Clear,230,2013-02-09 23:15:00
6:35 PM,10.0,-4.0,53,30.17,10.0,SW,11.5,18.4,N/A,,Clear,230,2013-02-09 23:35:00
6:55 PM,9.5,-4.2,54,30.18,10.0,SW,10.4,-,N/A,,Clear,230,2013-02-09 23:55:00
7:15 PM,9.3,-4.5,54,30.18,10.0,SW,9.2,16.1,N/A,,Clear,230,2013-02-10 00:15:00
7:35 PM,9.3,-4.9,53,30.19,10.0,SW,11.5,17.3,N/A,,Clear,230,2013-02-10 00:35:00
7:55 PM,9.3,-4.9,53,30.20,10.0,SW,10.4,-,N/A,,Clear,230,2013-02-10 00:55:00
8:35 PM,8.4,-5.4,53,30.21,10.0,SW,8.1,-,N/A,,Clear,230,2013-02-10 01:35:00
8:55 PM,8.8,-5.3,53,30.22,10.0,SW,8.1,-,N/A,,Clear,230,2013-02-10 01:55:00
9:15 PM,9.1,-5.1,53,30.23,10.0,SW,9.2,-,N/A,,Clear,230,2013-02-10 02:15:00
9:35 PM,8.4,-5.4,53,30.23,10.0,SW,8.1,-,N/A,,Clear,230,2013-02-10 02:35:00
9:55 PM,8.4,-5.4,53,30.22,10.0,SW,9.2,-,N/A,,Clear,230,2013-02-10 02:55:00
10:15 PM,8.2,-5.8,53,30.22,10.0,SW,9.2,-,N/A,,Clear,230,2013-02-10 03:15:00
10:35 PM,8.2,-5.8,53,30.22,10.0,SW,11.5,-,N/A,,Clear,230,2013-02-10 03:35:00
10:55 PM,8.2,-6.2,52,30.23,10.0,SW,6.9,-,N/A,,Clear,230,2013-02-10 03:55:00
11:15 PM,6.3,-5.6,58,30.24,10.0,SW,5.8,-,N/A,,Clear,230,2013-02-10 04:15:00
11:35 PM,6.3,-5.8,58,30.24,10.0,SW,3.5,-,N/A,,Clear,230,2013-02-10 04:35:00
11:55 PM,6.3,-5.6,58,30.25,10.0,SW,3.5,-,N/A,,Clear,230,2013-02-10 04:55:00